DW5861 Weather Reports


Display with metric or nautical units.
time (UTC)temp
F
wind
direction
speed
MPH
gust
MPH
rain 1hr
in
rain 24hr
in
rain mn
in
humidity
%
barometer
mb
20260510024003 72 158 2.0 8.0 0.00 0.00 0.00 87 1010.6
20260510023503 72 160 2.0 8.0 0.00 0.00 0.00 87 1010.6
20260510023004 72 159 1.0 4.0 0.00 0.00 0.00 87 1010.6
20260510022504 72 155 2.0 5.0 0.00 0.00 0.00 87 1010.5
20260510022003 72 143 1.0 5.0 0.00 0.00 0.00 86 1010.3
20260510021503 73 153 1.0 4.0 0.00 0.00 0.00 86 1010.2
20260510021004 73 158 1.0 6.0 0.00 0.00 0.00 86 1010.1
20260510020504 73 160 2.0 6.0 0.00 0.00 0.00 86 1010.1
20260510020024 73 157 2.0 4.0 0.00 0.00 0.00 85 1010.0
20260510015504 74 151 1.0 4.0 0.00 0.00 0.00 85 1010.0
20260510015003 74 157 1.0 5.0 0.00 0.00 0.00 85 1009.8
20260510014503 74 155 2.0 5.0 0.00 0.00 0.00 84 1009.7
20260510014003 74 159 2.0 6.0 0.00 0.00 0.00 84 1009.8
20260510013503 75 119 2.0 6.0 0.00 0.00 0.00 84 1009.6
20260510013003 75 139 2.0 6.0 0.00 0.00 0.00 84 1009.6
20260510012524 75 173 2.0 6.0 0.00 0.00 0.00 83 1009.4
20260510012003 76 169 1.0 5.0 0.00 0.00 0.00 82 1009.3
20260510011524 76 136 1.0 7.0 0.00 0.00 0.00 82 1009.3
20260510011003 76 140 2.0 7.0 0.00 0.00 0.00 82 1009.1
20260510010503 77 153 3.0 10.0 0.00 0.00 0.00 81 1008.8
20260510010003 77 149 2.0 10.0 0.00 0.00 0.00 81 1008.8
20260510005503 78 144 3.0 9.0 0.00 0.00 0.00 81 1008.8
20260510005003 78 146 3.0 9.0 0.00 0.00 0.00 81 1008.6
20260510004503 79 152 2.0 6.0 0.00 0.00 0.00 81 1008.5
20260510004003 79 152 2.0 6.0 0.00 0.00 0.00 82 1008.4
20260510003503 80 134 2.0 6.0 0.00 0.00 0.00 82 1008.3
20260510003004 81 88 2.0 6.0 0.00 0.00 0.00 81 1008.3
20260510002524 81 44 2.0 7.0 0.00 0.00 0.00 80 1008.3
20260510002003 82 33 1.0 7.0 0.00 0.00 0.00 81 1008.2
20260510001503 82 33 0.0 2.0 0.00 0.00 0.00 82 1008.0
20260510001003 82 42 1.0 2.0 0.00 0.00 0.00 82 1007.9
20260510000503 82 39 1.0 2.0 0.00 0.00 0.00 82 1007.9
20260510000024 82 35 0.0 2.0 0.00 0.00 0.00 82 1007.8
20260509235503 82 39 1.0 2.0 0.00 0.00 0.00 82 1007.8
20260509235003 82 33 1.0 2.0 0.00 0.00 0.00 82 1007.8
20260509234503 82 32 1.0 2.0 0.00 0.00 0.00 82 1007.8
20260509234003 82 33 1.0 2.0 0.00 0.00 0.00 81 1007.7
20260509233503 82 30 0.0 1.0 0.00 0.00 0.00 82 1007.7
20260509233003 82 26 0.0 1.0 0.00 0.00 0.00 82 1007.8
20260509232503 82 31 1.0 2.0 0.00 0.00 0.00 81 1007.7
20260509232003 82 34 1.0 2.0 0.00 0.00 0.00 81 1007.6
20260509231503 83 32 1.0 1.0 0.00 0.00 0.00 80 1007.6
20260509231003 83 29 1.0 2.0 0.00 0.00 0.00 81 1007.5
20260509230504 83 33 1.0 2.0 0.00 0.00 0.00 80 1007.3
20260509230004 83 43 1.0 2.0 0.00 0.00 0.00 79 1007.3
20260509225525 83 48 1.0 2.0 0.00 0.00 0.00 80 1007.2
20260509225004 84 44 0.0 2.0 0.00 0.00 0.00 79 1007.1
20260509224504 84 25 0.0 2.0 0.00 0.00 0.00 80 1007.1
20260509224004 84 36 1.0 2.0 0.00 0.00 0.00 80 1007.1
20260509223504 85 60 1.0 2.0 0.00 0.00 0.00 78 1007.1
20260509223004 84 51 1.0 2.0 0.00 0.00 0.00 76 1007.1
20260509222504 84 42 1.0 2.0 0.00 0.00 0.00 76 1007.1
20260509222004 85 38 0.0 2.0 0.00 0.00 0.00 75 1007.1
20260509221504 85 26 1.0 2.0 0.00 0.00 0.00 75 1007.1
20260509221004 85 19 1.0 2.0 0.00 0.00 0.00 73 1007.0
20260509220504 86 359 1.0 2.0 0.00 0.00 0.00 72 1007.0
20260509220004 86 342 1.0 2.0 0.00 0.00 0.00 77 1007.0
20260509215504 86 20 1.0 3.0 0.00 0.00 0.00 77 1007.0
20260509215004 86 36 1.0 3.0 0.00 0.00 0.00 76 1007.0
20260509214504 86 349 1.0 3.0 0.00 0.00 0.00 76 1007.0
20260509214004 86 5 1.0 3.0 0.00 0.00 0.00 75 1007.0
20260509213504 88 11 1.0 3.0 0.00 0.00 0.00 71 1007.1
20260509213004 89 15 1.0 3.0 0.00 0.00 0.00 69 1007.1
20260509212525 89 348 1.0 3.0 0.00 0.00 0.00 71 1007.3
20260509212004 89 270 1.0 3.0 0.00 0.00 0.00 66 1007.3
20260509211504 89 47 2.0 4.0 0.00 0.00 0.00 70 1007.4
20260509211004 89 38 2.0 4.0 0.00 0.00 0.00 67 1007.4
20260509210504 88 19 1.0 4.0 0.00 0.00 0.00 67 1007.5
20260509210004 89 338 1.0 2.0 0.00 0.00 0.00 71 1007.7
20260509205504 88 219 1.0 3.0 0.00 0.00 0.00 71 1007.7
20260509205004 89 260 1.0 3.0 0.00 0.00 0.00 67 1007.7
20260509204504 89 336 1.0 3.0 0.00 0.00 0.00 72 1007.8
20260509204004 90 232 1.0 3.0 0.00 0.00 0.00 70 1007.9
20260509203504 89 228 1.0 3.0 0.00 0.00 0.00 68 1008.0
20260509203004 88 348 1.0 3.0 0.00 0.00 0.00 69 1008.0
20260509202504 88 329 1.0 3.0 0.00 0.00 0.00 72 1008.1
20260509202025 89 184 2.0 3.0 0.00 0.00 0.00 67 1008.2
20260509201504 88 154 1.0 3.0 0.00 0.00 0.00 68 1008.2
20260509201004 86 24 1.0 3.0 0.00 0.00 0.00 75 1008.3
20260509200504 85 351 1.0 2.0 0.00 0.00 0.00 77 1008.3
20260509200025 86 316 1.0 3.0 0.00 0.00 0.00 72 1008.4
20260509195525 86 38 1.0 4.0 0.00 0.00 0.00 70 1008.5
20260509195004 87 40 1.0 4.0 0.00 0.00 0.00 73 1008.6
20260509194504 86 34 1.0 4.0 0.00 0.00 0.00 75 1008.7
20260509194004 86 204 2.0 6.0 0.00 0.00 0.00 73 1008.7
20260509193504 87 204 2.0 6.0 0.00 0.00 0.00 71 1008.7
20260509193004 86 18 1.0 4.0 0.00 0.00 0.00 73 1008.6
20260509192504 86 2 1.0 4.0 0.00 0.00 0.00 77 1008.7
20260509192004 87 216 1.0 3.0 0.00 0.00 0.00 73 1008.8
20260509191504 87 192 1.0 3.0 0.00 0.00 0.00 73 1008.8
20260509191004 86 214 1.0 3.0 0.00 0.00 0.00 75 1008.8
20260509190504 86 200 2.0 4.0 0.00 0.00 0.00 73 1008.9
20260509190004 84 188 1.0 4.0 0.00 0.00 0.00 77 1009.0
20260509185504 84 30 1.0 3.0 0.00 0.00 0.00 79 1009.0
20260509185025 83 5 1.0 3.0 0.00 0.00 0.00 77 1009.0
20260509184504 84 316 1.0 3.0 0.00 0.00 0.00 80 1009.1
20260509184004 84 291 1.0 3.0 0.00 0.00 0.00 79 1009.1
20260509183525 84 339 1.0 3.0 0.00 0.00 0.00 78 1009.2
20260509183004 83 13 1.0 3.0 0.00 0.00 0.00 78 1009.2
20260509182504 83 315 1.0 3.0 0.00 0.00 0.00 79 1009.2
20260509182004 84 204 2.0 4.0 0.00 0.00 0.00 78 1009.3
20260509181525 85 187 2.0 5.0 0.00 0.00 0.00 75 1009.4
20260509181004 86 165 3.0 5.0 0.00 0.00 0.00 75 1009.5
20260509180525 85 156 2.0 5.0 0.00 0.00 0.00 76 1009.4
20260509180004 84 177 2.0 5.0 0.00 0.00 0.00 77 1009.6
20260509175525 84 212 1.0 3.0 0.00 0.00 0.00 78 1009.7
20260509175004 82 349 1.0 3.0 0.00 0.00 0.00 82 1009.8
20260509174504 81 244 1.0 4.0 0.00 0.00 0.00 83 1010.0
20260509174004 81 213 1.0 4.0 0.00 0.00 0.00 83 1010.0
20260509173504 81 224 1.0 3.0 0.00 0.00 0.00 85 1010.0
20260509173004 80 259 1.0 3.0 0.00 0.00 0.00 87 1009.9
20260509172504 78 337 1.0 2.0 0.00 0.00 0.00 90 1010.1
20260509172004 78 22 0.0 2.0 0.00 0.00 0.00 90 1010.1
20260509171504 78 10 0.0 2.0 0.00 0.00 0.00 90 1010.1
20260509171004 78 342 0.0 2.0 0.00 0.00 0.00 90 1010.3
20260509170504 78 353 1.0 2.0 0.00 0.00 0.00 90 1010.3
20260509170025 79 359 1.0 2.0 0.00 0.00 0.00 89 1010.3
20260509165504 79 174 1.0 2.0 0.00 0.00 0.00 88 1010.4
20260509165004 79 173 1.0 2.0 0.00 0.00 0.00 88 1010.4
20260509164525 79 159 1.0 3.0 0.00 0.00 0.00 90 1010.6
20260509164004 78 186 1.0 3.0 0.00 0.00 0.00 90 1010.6
20260509163504 78 183 1.0 3.0 0.00 0.02 0.00 91 1010.7
20260509163004 78 182 1.0 3.0 0.00 0.18 0.00 93 1010.7
20260509162504 77 177 1.0 3.0 0.00 0.27 0.00 95 1010.6
20260509162004 77 181 1.0 4.0 0.00 0.28 0.00 95 1010.6
20260509161504 76 183 1.0 4.0 0.00 0.29 0.00 96 1010.7
20260509161025 76 162 2.0 3.0 0.00 0.29 0.00 97 1010.6
20260509160504 75 153 2.0 3.0 0.00 0.29 0.00 97 1010.6
20260509160004 75 155 1.0 3.0 0.00 0.29 0.00 97 1010.7
20260509155504 75 184 1.0 4.0 0.00 0.29 0.00 97 1010.5
20260509155004 75 180 2.0 4.0 0.00 0.30 0.00 97 1010.4
20260509154504 75 165 1.0 4.0 0.00 0.33 0.00 98 1010.3
20260509154025 74 156 1.0 2.0 0.00 0.37 0.00 97 1010.2
20260509153504 74 313 1.0 2.0 0.00 0.38 0.00 97 1010.4
20260509153004 74 214 1.0 4.0 0.00 0.39 0.00 97 1010.2
20260509152504 75 176 2.0 4.0 0.00 0.46 0.00 98 1009.9
20260509152025 74 161 2.0 4.0 0.00 0.46 0.00 98 1009.7
20260509151504 74 160 1.0 4.0 0.00 0.46 0.00 97 1009.8
20260509151025 73 112 1.0 2.0 0.00 0.47 0.00 97 1010.0
20260509150504 73 30 1.0 2.0 0.00 0.50 0.00 97 1010.1
20260509150004 73 359 0.0 2.0 0.00 0.53 0.00 97 1010.2
20260509145504 73 317 0.0 2.0 0.00 0.60 0.00 97 1010.1
20260509145004 73 317 0.0 2.0 0.00 0.62 0.00 97 1010.1
20260509144504 73 339 0.0 1.0 0.00 0.62 0.00 97 1010.1
20260509144004 73 20 0.0 1.0 0.00 0.62 0.00 97 1010.0
20260509143504 73 25 0.0 2.0 0.00 0.62 0.00 97 1009.9
20260509143004 73 13 1.0 2.0 0.00 0.62 0.00 97 1010.0
20260509142504 73 1 1.0 2.0 0.00 0.62 0.00 97 1010.1
20260509142004 72 328 0.0 2.0 0.00 0.62 0.00 97 1010.2
20260509141504 72 340 0.0 1.0 0.00 0.62 0.00 97 1010.3
20260509141004 72 314 0.0 1.0 0.00 0.62 0.00 97 1010.3
20260509140504 72 247 0.0 1.0 0.00 0.62 0.00 97 1010.4
20260509140005 72 330 0.0 2.0 0.00 0.62 0.00 97 1010.3
20260509135504 72 342 0.0 2.0 0.00 0.62 0.00 97 1010.3
20260509135004 72 22 0.0 1.0 0.00 0.62 0.00 97 1010.4
20260509134525 72 126 0.0 1.0 0.00 0.62 0.00 97 1010.4
20260509134004 72 106 0.0 1.0 0.00 0.62 0.00 97 1010.4
20260509133504 72 104 0.0 1.0 0.00 0.65 0.00 97 1010.5
20260509133004 72 98 0.0 2.0 0.00 0.72 0.00 97 1010.5
20260509132504 72 128 1.0 2.0 0.00 0.75 0.00 97 1010.3
20260509132004 72 167 0.0 2.0 0.00 0.77 0.00 97 1010.5
20260509131504 72 266 0.0 1.0 0.00 0.77 0.00 97 1010.5
20260509131004 72 341 0.0 2.0 0.00 0.77 0.00 97 1010.4
20260509130504 72 151 0.0 2.0 0.00 0.77 0.00 97 1010.3
20260509130004 72 163 1.0 2.0 0.00 0.77 0.00 97 1010.0
20260509125504 72 161 1.0 3.0 0.00 0.77 0.00 97 1010.0
20260509125004 72 160 1.0 3.0 0.00 0.77 0.00 97 1010.0
20260509124504 71 340 0.0 1.0 0.00 0.77 0.00 97 1010.1
20260509124004 71 79 0.0 2.0 0.00 0.77 0.00 97 1010.0
20260509123525 71 146 1.0 3.0 0.00 0.77 0.00 97 1009.7
20260509123004 71 148 1.0 3.0 0.00 0.77 0.00 97 1009.7
20260509122504 71 153 1.0 2.0 0.00 0.77 0.00 97 1009.8
20260509122004 71 164 1.0 2.0 0.00 0.77 0.00 97 1009.7
20260509121504 71 177 1.0 2.0 0.00 0.77 0.00 97 1009.8
20260509121004 71 180 0.0 1.0 0.00 0.77 0.00 97 1009.9
20260509120504 71 166 0.0 1.0 0.00 0.77 0.00 97 1009.9
20260509120004 71 158 0.0 2.0 0.00 0.77 0.00 97 1009.9
20260509115504 71 154 0.0 2.0 0.00 0.77 0.00 97 1009.9
20260509115004 71 356 0.0 1.0 0.00 0.77 0.00 97 1009.9
20260509114504 71 351 0.0 2.0 0.00 0.77 0.00 97 1009.8
20260509114004 71 357 0.0 2.0 0.00 0.77 0.00 97 1009.6
20260509113504 71 24 0.0 1.0 0.00 0.77 0.00 97 1009.7
20260509113004 71 204 0.0 1.0 0.00 0.77 0.00 97 1009.8
20260509112504 71 3 0.0 1.0 0.00 0.77 0.00 97 1009.7
20260509112004 71 10 0.0 1.0 0.00 0.77 0.00 97 1009.8
20260509111504 71 341 0.0 1.0 0.00 0.77 0.00 96 1009.9
20260509111004 71 352 0.0 2.0 0.00 0.77 0.00 96 1009.9
20260509110525 71 358 1.0 2.0 0.00 0.77 0.00 96 1009.7
20260509110025 71 353 1.0 2.0 0.00 0.77 0.00 96 1009.7
20260509105504 71 341 0.0 1.0 0.00 0.77 0.00 96 1009.6
20260509105004 71 353 0.0 2.0 0.00 0.77 0.00 96 1009.6
20260509104504 71 342 1.0 2.0 0.00 0.77 0.00 96 1009.4
20260509104004 71 343 1.0 2.0 0.00 0.77 0.00 96 1009.4
20260509103504 71 186 1.0 2.0 0.00 0.77 0.00 96 1009.2
20260509103004 71 169 1.0 3.0 0.00 0.77 0.00 96 1009.0
20260509102504 71 153 1.0 3.0 0.00 0.77 0.00 96 1008.9
20260509102004 71 141 1.0 3.0 0.00 0.77 0.00 96 1009.0
20260509101504 71 137 0.0 2.0 0.00 0.77 0.00 96 1009.1
20260509101025 71 151 1.0 2.0 0.00 0.77 0.00 96 1009.2
20260509100504 71 159 0.0 1.0 0.00 0.77 0.00 96 1009.3
20260509100005 71 154 0.0 1.0 0.00 0.77 0.00 96 1009.3
20260509095503 71 350 0.0 1.0 0.00 0.77 0.00 96 1009.3
20260509095004 71 60 0.0 1.0 0.00 0.77 0.00 96 1009.3
20260509094504 71 101 0.0 1.0 0.00 0.77 0.00 96 1009.2
20260509094025 71 144 0.0 1.0 0.00 0.77 0.00 96 1009.3
20260509093504 71 150 0.0 1.0 0.00 0.77 0.00 95 1009.3
20260509093004 71 256 0.0 1.0 0.00 0.77 0.00 95 1009.5
20260509092504 71 335 0.0 1.0 0.00 0.77 0.00 95 1009.5
20260509092004 71 333 0.0 1.0 0.00 0.77 0.00 95 1009.6
20260509091504 71 344 0.0 1.0 0.00 0.77 0.00 95 1009.6
20260509091004 71 26 0.0 1.0 0.00 0.77 0.00 95 1009.4
20260509090525 71 32 0.0 1.0 0.00 0.77 0.00 95 1009.4
20260509090004 71 293 0.0 1.0 0.00 0.77 0.00 95 1009.4
20260509085504 71 175 0.0 1.0 0.00 0.77 0.00 95 1009.5
20260509085004 71 183 0.0 1.0 0.00 0.77 0.00 95 1009.5
20260509084504 71 212 0.0 1.0 0.00 0.77 0.00 95 1009.4
20260509084003 71 216 0.0 1.0 0.00 0.77 0.00 95 1009.5
20260509083504 71 175 0.0 1.0 0.00 0.77 0.00 95 1009.4
20260509083004 71 154 0.0 1.0 0.00 0.77 0.00 95 1009.4
20260509082504 71 157 0.0 1.0 0.00 0.77 0.00 95 1009.4
20260509082004 71 159 0.0 1.0 0.00 0.77 0.00 94 1009.5
20260509081504 71 160 0.0 1.0 0.00 0.77 0.00 94 1009.6
20260509081025 71 31 0.0 1.0 0.00 0.77 0.00 94 1009.7
20260509080504 71 2 1.0 2.0 0.00 0.77 0.00 94 1009.8
20260509080004 71 348 1.0 2.0 0.00 0.77 0.00 94 1009.9
20260509075504 71 322 0.0 1.0 0.00 0.77 0.00 94 1010.0
20260509075003 71 141 0.0 1.0 0.00 0.77 0.00 94 1010.0
20260509074504 71 130 0.0 1.0 0.00 0.77 0.00 94 1010.1
20260509074004 71 124 0.0 1.0 0.00 0.77 0.00 94 1010.1
20260509073525 71 240 0.0 1.0 0.00 0.77 0.00 94 1010.1
20260509073004 71 240 0.0 1.0 0.00 0.77 0.00 94 1010.3
20260509072503 71 5 0.0 1.0 0.00 0.77 0.00 94 1010.3
20260509072003 71 357 0.0 1.0 0.00 0.77 0.00 94 1010.2
20260509071504 71 351 0.0 2.0 0.00 0.77 0.00 94 1010.3
20260509071004 71 342 0.0 2.0 0.00 0.77 0.00 94 1010.3
20260509070504 71 315 0.0 1.0 0.00 0.77 0.00 93 1010.3
20260509070003 71 302 0.0 1.0 0.00 0.77 0.00 93 1010.3
20260509065504 71 316 0.0 1.0 0.00 0.77 0.00 93 1010.3
20260509065003 71 356 0.0 1.0 0.00 0.77 0.00 93 1010.3
20260509064504 71 355 0.0 1.0 0.00 0.77 0.00 93 1010.2
20260509064004 71 154 0.0 2.0 0.00 0.77 0.00 93 1010.2
20260509063524 71 171 1.0 3.0 0.00 0.77 0.00 93 1010.1
20260509063003 71 157 1.0 4.0 0.00 0.77 0.00 93 1010.0
20260509062524 71 153 1.0 4.0 0.00 0.77 0.00 93 1009.8
20260509062024 71 158 1.0 4.0 0.00 0.77 0.00 93 1009.7
20260509061504 71 162 1.0 3.0 0.00 0.77 0.00 93 1009.8
20260509061004 71 168 1.0 2.0 0.00 0.77 0.00 93 1009.9
20260509060503 71 169 1.0 2.0 0.00 0.77 0.00 93 1010.0
20260509060004 71 161 1.0 2.0 0.00 0.77 0.00 93 1010.1
20260509055503 71 154 1.0 4.0 0.00 0.77 0.00 93 1010.1
20260509055004 71 152 1.0 4.0 0.00 0.77 0.00 93 1010.0
20260509054504 71 161 1.0 5.0 0.00 0.77 0.00 93 1010.0
20260509054003 71 173 1.0 5.0 0.00 0.77 0.00 93 1010.0
20260509053504 71 182 1.0 3.0 0.00 0.77 0.00 93 1010.0
20260509053004 71 172 1.0 3.0 0.00 0.77 0.00 93 1010.0
20260509052503 71 165 1.0 4.0 0.00 0.77 0.00 92 1010.0
20260509052004 71 168 1.0 4.0 0.00 0.77 0.00 92 1010.0
20260509051504 71 168 1.0 3.0 0.00 0.77 0.00 92 1010.0
20260509051003 71 160 1.0 3.0 0.00 0.77 0.00 92 1010.1
20260509050503 71 162 1.0 3.0 0.00 0.77 0.00 92 1010.1
20260509050003 71 170 1.0 3.0 0.00 0.77 0.00 92 1010.2
20260509045503 71 176 1.0 3.0 0.00 0.77 0.77 92 1010.2
20260509045003 71 176 1.0 4.0 0.00 0.77 0.77 92 1010.2
20260509044525 71 171 2.0 5.0 0.00 0.77 0.77 92 1010.3
20260509044003 71 181 2.0 5.0 0.00 0.77 0.77 92 1010.4
20260509043503 71 184 1.0 3.0 0.00 0.77 0.77 92 1010.3
20260509043004 71 172 1.0 4.0 0.00 0.77 0.77 92 1010.2
20260509042503 71 162 2.0 5.0 0.00 0.77 0.77 92 1010.2
20260509042004 71 157 1.0 5.0 0.00 0.77 0.77 92 1010.2
20260509041525 71 167 1.0 4.0 0.00 0.77 0.77 92 1010.3
20260509041003 71 169 1.0 5.0 0.00 0.77 0.77 92 1010.2
20260509040524 71 167 1.0 5.0 0.00 0.77 0.77 92 1010.1
20260509040004 71 166 1.0 3.0 0.00 0.77 0.77 92 1010.0
20260509035504 71 158 2.0 3.0 0.00 0.77 0.77 92 1009.9
20260509035024 71 161 1.0 3.0 0.00 0.77 0.77 92 1009.9
20260509034503 71 163 1.0 3.0 0.00 0.77 0.77 92 1009.8
20260509034004 71 160 1.0 5.0 0.00 0.77 0.77 92 1009.8
20260509033503 71 163 1.0 5.0 0.00 0.77 0.77 92 1009.8
20260509033003 71 160 2.0 5.0 0.00 0.77 0.77 92 1009.8
20260509032503 71 163 2.0 4.0 0.00 0.77 0.77 92 1009.7
20260509032003 71 164 2.0 4.0 0.00 0.77 0.77 92 1009.8
20260509031503 71 151 1.0 4.0 0.00 0.77 0.77 92 1009.7
20260509031003 71 142 1.0 4.0 0.00 0.77 0.77 91 1009.8
20260509030503 71 154 2.0 4.0 0.00 0.77 0.77 91 1009.8
20260509030025 71 174 2.0 4.0 0.00 0.77 0.77 91 1009.7
20260509025503 71 182 1.0 4.0 0.00 0.77 0.77 92 1009.7
20260509025003 71 159 1.0 6.0 0.00 0.77 0.77 92 1009.5
20260509024503 71 157 2.0 6.0 0.00 0.77 0.77 92 1009.4